Location: Newark
(10.3333°N, 37.7167°E)
Time: 01:09:43
(UTC+00:00)

STARLINK-1066 - Pass Details

Date: 04 February 2020
Orbit: 348 x 350 km, 53.0° (Epoch: 19 February)

Event Time Altitude Azimuth Distance (km) Brightness Sun altitude
Rises 17:11:33 0° 315° (NW) 2,157 7.1 -24.0°
Reaches altitude 10° 17:13:37 10° 307° (NW) 1,314 6.0 -24.4°
Enters shadow 17:14:31 17° 299° (WNW) 973 5.4 -24.7°
